SL-16 DEB, 22602

Orbit data source: Space-Track

SL-16 DEB, 22602 is space debris in LEO originally from a launch on Fri, 26 Mar 1993 UTC launched from the Tyuratam Missile And Space Complex (TTMTR). Debris objects in space refer to the collection of defunct objects orbiting the Earth. Examples of debris include non-operational satellites, rocket bodies, and fragments generated from explosions, collisions, or faulty payload assembly.

Loading next visibility...
Identifier
22602, 1993-016L
Orbit
LEO
Country
Flag of CISCIS
Related business
Manufacturer
Unknown
Mission
Spacecraft
Bus & Motor
Unknown
Mass
Unknown
Launch date (UTC)
1993-03-26 (33 years ago)
Launch vehicle
Unknown
Launch site
Tyuratam Missile And Space Complex (TTMTR)
Object type
Payload
Rocket body
Debris
Shape & HBR
Unknown shape, 0.1 m
Radar Cross Section
Small (<0.1 m²)

Expand to show TLE details & history
Last TLE update: 5 hours ago

TLE from 5 hours ago
0 SL-16 DEB
1 22602U 93016L   25293.61955244  .00000143  00000-0  16994-3 0  9998
2 22602  71.0451  61.8461 0197327  75.0930 303.6964 13.74097956632239
Epoch: 2025-10-20T14:52Z
TLE epoch observation values (Epoch: 2025-10-20T14:52:09.330Z)
Latitude
15.93233°
Longitude
175.0848°
Altitude
907.986 km
Speed
7.439 km/s
True Right ascension
04h 29m 46s
True Declination
15° 50' 37"
Sunlit
Object was in full shadow at epoch
Visualization orbit readout
Latitude
Unknown
Longitude
Unknown
Altitude
Unknown
Speed
Unknown
Apparent Right ascension
Unknown
Apparent Declination
Unknown
Sunlit
N/A
Visualization observer readout
Local Sidereal Time
15:15:49
Azimuth
Unknown
Elevation
Unknown
Doppler factor
Unknown
Orbital elements
Apogee altitude
1,128.107 km
Perigee altitude
837.603 km
Semi-major axis
7,360.992 km
Eccentricity
0.01973
Inclination
71.0451°
RAAN
61.8461°
Arg. of periapsis
75.093°
True anomaly
301.78937°
Mean anomaly
303.6964°
Eccentric anomaly
302.74547°
Mean motion
3.43668 °/min
Orbital period
104.75 mins
BSTAR
0.00016994
Loading maneuver chart data...
Computing Atmospheric mass density...
Loading historical data...
Loading historical data...
Loading historical data...
Loading historical data...
Loading historical data...
Loading historical data...
Loading historical data...

Documentation

Showing up to 5 results
|